This is the latest recevied weather packets stored in our database for station/object KD0SBN. If no packets are shown the sender has not sent any weather packets the latest 10 day(s).
| Time | Temp. | Humidity | Pressure | Rain* | Wind** | Luminosity | Snow |
|---|---|---|---|---|---|---|---|
| 1778031295 | 4.44° C | 91% | 1011.6 hPa | 0 mm | - | - | - |
| 1778030991 | 4.44° C | 91% | 1011.9 hPa | 0 mm | - | - | - |
| 1778030688 | 4.44° C | 91% | 1012.1 hPa | 0 mm | - | - | - |
| 1778030385 | 4.44° C | 90% | 1012 hPa | 0 mm | - | - | - |
| 1778030082 | 3.89° C | 90% | 1012.1 hPa | 0 mm | - | - | - |
| 1778029779 | 3.89° C | 90% | 1011.8 hPa | 0 mm | - | - | - |
| 1778029478 | 3.89° C | 90% | 1012.2 hPa | 0 mm | - | - | - |
| 1778029173 | 3.89° C | 90% | 1011.6 hPa | 0 mm | - | - | - |
| 1778028872 | 4.44° C | 90% | 1011.2 hPa | 0 mm | - | - | - |
| 1778028566 | 4.44° C | 90% | 1011.1 hPa | 0 mm | - | - | - |
| 1778028265 | 4.44° C | 90% | 1010.9 hPa | 0 mm | - | - | - |
| 1778027960 | 4.44° C | 89% | 1010.7 hPa | 0 mm | - | - | - |
| 1778027657 | 4.44° C | 89% | 1011.2 hPa | 1.78 mm | - | - | - |
| 1778027354 | 4.44° C | 88% | 1011.4 hPa | 0 mm | - | - | - |
| 1778027050 | 4.44° C | 87% | 1011.5 hPa | 0 mm | - | - | - |
| 1778026745 | 4.44° C | 87% | 1011.4 hPa | 1.78 mm | - | - | - |
| 1778026442 | 5° C | 88% | 1011.3 hPa | 3.56 mm | - | - | - |
| 1778026140 | 5° C | 86% | 1011.5 hPa | 4.32 mm | - | - | - |
| 1778025837 | 5° C | 87% | 1011.4 hPa | 4.32 mm | - | - | - |
| 1778025534 | 5.56° C | 88% | 1011.2 hPa | 5.33 mm | - | - | - |
| 1778025232 | 5° C | 89% | 1011.2 hPa | 3.56 mm | - | - | - |
| 1778024928 | 5° C | 90% | 1011.2 hPa | 1.78 mm | - | - | - |
| 1778024626 | 5° C | 91% | 1011.2 hPa | 1.78 mm | - | - | - |
| 1778024322 | 5.56° C | 90% | 1010.5 hPa | 1.78 mm | - | - | - |
| 1778024021 | 6.11° C | 84% | 1010.9 hPa | 1.78 mm | - | - | - |
* Rain latest hour (hover to see other rain measurements)
** Current wind speed in m/s (hover to see current wind gust speed)